This is the latest recevied weather packets stored in our database for station/object KB7STN. If no packets are shown the sender has not sent any weather packets the latest 10 day(s).
| Time | Temp. | Humidity | Pressure | Rain* | Wind** | Luminosity | Snow |
|---|---|---|---|---|---|---|---|
| 1788212124 | 26.11° C | 43% | 1018.4 hPa | 0 mm | - | - | - |
| 1788211824 | 26.67° C | 40% | 1018.5 hPa | 0 mm | - | - | - |
| 1788211524 | 26.67° C | 36% | 1018.5 hPa | 0 mm | - | - | - |
| 1788211224 | 26.67° C | 38% | 1018.6 hPa | 0 mm | - | - | - |
| 1788210924 | 27.22° C | 38% | 1018.6 hPa | 0 mm | - | - | - |
| 1788210624 | 26.67° C | 38% | 1018.6 hPa | 0 mm | - | - | - |
| 1788210324 | 26.67° C | 37% | 1018.6 hPa | 0 mm | - | - | - |
| 1788210024 | 26.67° C | 37% | 1018.6 hPa | 0 mm | - | - | - |
| 1788209724 | 26.67° C | 37% | 1018.6 hPa | 0 mm | - | - | - |
| 1788209424 | 26.67° C | 39% | 1018.6 hPa | 0 mm | - | - | - |
| 1788209124 | 26.67° C | 37% | 1018.7 hPa | 0 mm | - | - | - |
| 1788208824 | 26.67° C | 39% | 1018.9 hPa | 0 mm | - | - | - |
| 1788208524 | 26.11° C | 39% | 1019.1 hPa | 0 mm | - | - | - |
| 1788208224 | 26.11° C | 39% | 1019 hPa | 0 mm | - | - | - |
| 1788207924 | 26.67° C | 38% | 1019.2 hPa | 0 mm | - | - | - |
| 1788207624 | 26.11° C | 39% | 1019.2 hPa | 0 mm | - | - | - |
| 1788207324 | 26.11° C | 39% | 1019.2 hPa | 0 mm | - | - | - |
| 1788207024 | 26.11° C | 39% | 1019.4 hPa | 0 mm | - | - | - |
| 1788206724 | 26.67° C | 41% | 1019.3 hPa | 0 mm | - | - | - |
| 1788206424 | 26.67° C | 40% | 1019.4 hPa | 0 mm | - | - | - |
| 1788206124 | 26.67° C | 40% | 1019.5 hPa | 0 mm | - | - | - |
| 1788205824 | 26.11° C | 41% | 1019.7 hPa | 0 mm | - | - | - |
| 1788205524 | 26.11° C | 42% | 1019.7 hPa | 0 mm | - | - | - |
| 1788205224 | 26.11° C | 41% | 1019.8 hPa | 0 mm | - | - | - |
| 1788204924 | 26.11° C | 40% | 1019.9 hPa | 0 mm | - | - | - |
* Rain latest hour (hover to see other rain measurements)
** Current wind speed in m/s (hover to see current wind gust speed)